{"data":{"norad_id":56749,"intl_designator":"2023-072G","name":"2023-072G","alt_names":[],"object_type":"PAYLOAD","status":"ACTIVE","operator":null,"country":"SKOR","launch_date":"2023-05-25","launch_site_code":"NSC","launch_vehicle":null,"mission":null,"orbit_class":"UNKNOWN","rcs_meters":null,"size_class":null,"mass_kg":null,"dimensions":null,"purposes":[],"wikipedia_slug":null,"has_3d_model":false,"image_url":null,"decayed_at":null,"tle_current":{"epoch":"2026-09-21T22:55:52.925088Z","epoch_age_seconds":71051,"freshness":"FRESH","line1":"1 56749U 23072G   26264.95547367  .00028423  00000+0  40885-3 0  9997","line2":"2 56749  97.4779 116.9975 0002810  22.3602 337.7774 15.56030978185488","mean_motion":15.56030978,"eccentricity":0.000281,"inclination_deg":97.4779,"raan_deg":116.9975,"arg_perigee_deg":22.3602,"mean_anomaly_deg":337.7774,"bstar":0.00040885,"rev_number":18548,"period_min":92.543144729089,"perigee_km":397.25293869691,"apogee_km":401.06177812634,"semimajor_km":6777.2943584116,"source":"CELESTRAK","updated_at":"2026-09-22T09:00:25.906491Z"}}}